CAPE
8 9 9 10 9 8 9 10 11 10 9 12 15 25 19 14 11 6 1 0 0 0 0 0 0 0 0 0 0 0 0 0 0 0 0 0 0 0 0 0 0 0 0 0 0
13 11 8 9 6 6 5 6 5 6 6 6 6 12 25 20 0 5 0 0 0 0 0 0 0 0 0 0 0 0 0 0 0 0 0 0 0 0 0 0 0 0 0 0 0
13 10 11 11 12 12 7 6 6 6 6 3 3 5 9 12 3 0 0 0 0 0 0 0 0 0 0 0 0 0 0 0 0 0 0 0 0 0 0 0 0 0 0 0 0
17 14 16 16 14 11 11 13 8 8 6 6 5 5 8 2 0 0 0 0 0 0 0 0 0 0 0 0 0 0 0 0 0 0 0 0 0 0 0 0 0 0 0 0 0
18 28 14 9 9 10 11 7 6 3 1 1 5 13 6 1 0 0 0 0 0 0 0 0 0 0 0 0 0 0 0 0 0 0 0 0 0 0 0 0 0 0 0 0 0
22 22 17 19 16 13 11 11 7 2 0 0 3 21 6 0 0 0 0 0 0 0 0 0 0 0 0 0 0 0 0 0 0 0 0 0 0 0 0 0 0 0 0 0 0
24 14 18 31 29 27 27 21 11 7 0 0 1 15 0 0 0 0 0 0 0 0 0 0 0 0 0 0 0 0 0 0 0 0 0 0 0 0 0 0 0 0 0 0 0
20 14 29 36 36 32 25 24 13 5 0 0 0 10 2 0 0 0 0 0 0 2 3 0 0 0 0 0 0 0 0 0 0 0 0 0 0 0 0 0 0 0 0 0 0
23 33 29 33 45 34 20 19 4 1 0 0 0 12 2 0 2 0 0 0 0 2 9 0 0 0 0 0 0 0 0 0 0 0 0 0 0 0 0 0 0 0 0 0 0
43 47 50 52 59 25 13 7 0 0 0 0 9 39 0 0 0 0 0 0 59 32 54 57 3 1 0 0 0 0 0 0 0 0 0 0 0 0 0 0 0 0 0 0 0
53 54 57 58 59 9 2 0 0 0 0 0 0 0 0 0 0 0 0 0 65 74 17 4 60 7 3 0 0 0 0 0 0 0 0 0 0 0 0 0 0 0 0 0 0
62 58 52 56 32 10 0 0 0 24 12 0 0 0 0 0 2 0 0 0 32 33 44 18 41 0 0 0 0 0 0 0 0 0 0 0 0 0 0 0 0 0 0 0 0
58 48 53 61 56 0 0 0 1 15 24 0 0 0 0 0 0 0 0 1 0 0 11 25 0 0 0 0 0 0 0 0 0 0 0 0 0 0 0 0 0 0 0 0 0
50 52 55 71 6 0 0 0 11 2 16 0 0 0 8 6 3 14 11 0 1 10 4 16 0 0 0 0 2 6 0 0 0 0 0 0 0 0 0 0 0 0 0 0 0
55 44 47 71 8 0 0 0 3 2 1 0 0 169 2 14 0 0 37 14 9 0 38 7 2 15 0 0 0 0 0 0 0 6 2 0 1 0 0 0 0 0 0 0 0
54 26 74 0 0 0 2 18 1 6 0 0 0 0 0 0 0 0 0 2 1 4 0 0 0 9 0 0 0 0 2 1 2 0 11 0 0 0 0 0 0 0 0 0 0
50 17 29 0 0 0 2 0 1 0 0 0 0 0 0 0 0 0 0 0 0 6 0 0 0 0 36 13 1 0 2 19 19 24 14 0 0 0 0 0 0 0 0 0 0
47 1 0 0 0 0 0 0 1 0 0 0 0 0 2 0 1 0 0 0 1 3 0 0 0 0 1 9 0 5 0 0 2 0 0 0 0 0 0 0 0 0 0 0 0
30 0 0 0 0 0 6 0 0 0 0 5 0 0 0 3 0 0 0 0 11 0 0 4 0 0 0 0 15 2 0 0 0 0 0 0 0 0 0 0 0 0 0 0 0
0 0 0 0 0 0 7 0 0 0 6 17 4 8 0 0 0 0 0 0 0 10 68 9 0 0 0 0 3 5 0 4 0 1 1 1 0 0 0 0 0 0 0 0 0
0 0 0 0 0 0 2 0 0 0 1 5 0 2 0 0 0 0 0 0 8 21 16 3 0 0 1 0 0 8 8 3 0 0 0 0 0 0 0 0 0 0 0 0 0
3 2 0 0 0 0 0 2 1 0 0 0 2 0 0 0 0 0 0 1 0 10 7 0 1 0 0 0 0 0 0 0 0 0 0 0 0 0 0 0 0 0 0 0 0
1 0 0 0 0 0 0 0 0 0 0 0 2 14 0 0 0 0 0 0 0 0 0 1 0 0 0 0 0 0 0 0 0 0 0 0 0 0 0 0 0 0 0 0 0
12 2 0 2 0 0 0 0 0 0 0 0 1 19 1 0 0 0 0 0 0 0 17 1 0 1 0 0 0 0 0 0 5 12 0 0 0 0 0 0 0 1 2 0 0
1 0 0 0 0 0 0 0 0 0 0 0 2 11 2 0 0 0 0 0 0 0 0 0 2 0 0 0 0 0 0 0 0 0 0 0 0 0 0 0 0 0 0 0 0
25 0 1 0 0 0 0 0 0 0 1 0 0 0 0 2 0 0 0 1 0 0 0 0 2 0 0 0 0 0 0 0 0 0 0 0 0 0 0 0 0 0 0 0 0
4 6 1 0 0 0 0 0 0 0 0 1 5 4 0 0 1 1 1 1 1 2 0 3 0 4 0 0 0 0 0 0 0 0 0 0 0 0 0 0 0 0 0 0 0
CIN
0 0 0 0 0 0 0 0 0 0 0 0 0 0 0 0 0 -1 0 0 0 0 0 0 0 0 0 0 0 0 0 0 0 0 0 0 0 0 0 0 0 0 0 0 0
0 0 0 0 0 0 0 0 0 0 0 0 0 0 0 0 -1 0 0 0 0 0 0 0 0 0 0 0 0 0 0 0 0 0 0 0 0 0 0 0 0 0 0 0 0
0 0 0 0 0 0 0 0 0 0 0 0 0 0 0 -1 0 0 0 0 -1 0 0 0 0 0 0 0 0 0 0 0 0 0 0 0 0 0 0 0 0 0 0 0 0
0 0 0 0 0 0 0 0 0 0 0 0 0 0 0 -3 0 0 0 0 0 0 0 0 0 0 0 0 0 0 0 0 0 0 0 0 0 0 0 0 0 0 0 0 0
0 0 0 0 0 0 0 0 0 0 0 0 0 0 -1 -1 0 0 0 0 0 0 0 0 0 0 0 0 0 0 0 0 0 0 0 0 0 0 0 0 0 0 0 0 0
0 0 0 0 0 0 0 0 0 0 0 0 0 0 -1 0 0 0 0 0 0 0 0 0 0 0 0 0 0 0 0 0 0 0 0 0 0 0 0 0 0 0 0 0 0
0 0 0 0 0 0 0 0 0 0 0 0 0 -1 -1 0 0 0 0 0 0 0 0 0 0 0 0 0 0 0 0 0 0 0 0 0 0 0 0 0 0 0 0 0 0
0 0 0 0 0 0 0 0 0 0 0 0 0 -2 -1 0 0 0 0 0 0 -14 -22 0 0 0 0 0 0 0 0 0 0 0 0 0 0 0 0 0 0 0 0 0 0
0 0 0 0 0 0 0 0 0 0 0 0 0 -25 0 0 0 0 0 0 0 -16 -14 -4 0 0 0 0 0 0 0 0 0 0 0 0 0 0 0 0 0 0 0 0 0
0 0 0 0 0 0 0 0 0 0 0 0 -3 -10 -2 0 0 0 0 0 -3 -11 -8 -7 -21 -24 0 0 0 0 0 0 0 0 0 0 0 0 0 0 0 0 0 0 0
0 0 0 0 0 0 0 0 0 0 0 0 0 0 0 0 0 0 0 0 -6 -2 -1 0 0 -2 -2 0 0 0 0 0 0 0 0 0 0 0 0 0 0 0 0 0 0
0 0 0 0 0 -2 0 0 -4 -8 -1 0 0 0 0 0 -1 0 0 0 -1 0 -1 -12 -1 0 0 0 0 0 0 0 0 0 0 0 0 0 0 0 0 0 0 0 0
0 0 0 0 0 0 0 0 -8 -26 0 0 0 0 0 0 0 0 0 0 0 0 0 0 0 0 0 -2 -1 0 0 0 0 0 0 0 0 0 0 0 0 0 0 0 0
0 0 0 0 -5 0 0 0 -16 -17 -5 0 0 0 -67 -56 -28 -23 -64 -4 0 -1 0 0 0 0 0 0 -4 -1 0 0 0 0 0 -6 0 0 0 0 0 0 0 0 0
0 0 0 0 -4 0 0 0 -32 0 -8 0 0 -36 -5 -20 0 0 -53 -41 -1 0 -4 -3 0 -40 0 0 0 -9 0 0 -1 -7 -10 -14 -2 0 0 0 0 0 0 0 0
0 0 0 0 0 0 -25 -26 -13 0 0 0 0 0 0 0 0 0 0 -70 -11 0 0 0 0 0 0 0 0 0 -2 -22 -19 -9 -7 0 -1 0 0 0 0 0 0 0 0
0 0 -1 0 0 0 -41 0 -1 0 0 0 0 0 0 0 0 0 0 -1 -3 0 0 0 0 0 -2 0 0 0 -19 -7 -6 -2 -12 0 0 0 0 0 0 0 0 0 0
0 0 0 0 0 0 0 0 -1 0 0 0 0 0 -1 0 -23 -7 0 0 -2 0 0 0 0 0 0 0 0 0 0 -2 -9 0 0 0 -16 0 0 0 0 0 0 0 0
-1 0 0 0 0 0 -4 -2 0 0 0 0 0 0 0 -34 0 0 0 0 -1 0 0 0 0 0 0 0 -2 -1 -1 0 0 0 0 0 0 0 0 0 0 0 0 0 0
0 0 0 0 0 0 -1 0 0 0 0 0 -1 0 0 0 0 0 0 0 -3 -9 0 -3 0 0 0 0 -1 -7 0 -9 0 -3 -10 -2 0 0 0 0 0 0 0 0 0
0 0 0 0 0 -1 -1 0 0 0 0 0 0 -1 0 0 0 0 0 0 -8 -7 -9 -5 0 0 0 -1 0 0 -2 -4 0 0 0 0 0 0 0 0 0 0 0 0 0
-3 -1 0 0 0 0 0 -4 0 0 0 0 0 0 0 0 0 0 0 -17 -1 -15 -5 0 0 0 0 0 0 0 0 0 0 0 0 0 0 0 0 0 0 0 0 0 0
-1 0 0 0 0 0 0 0 0 0 0 0 -2 0 -1 0 0 0 0 0 0 0 0 0 0 0 0 0 0 0 0 0 -5 -4 0 -1 0 0 0 0 0 0 0 0 0
0 -1 0 -29 0 0 0 0 0 0 0 -10 0 -18 -1 0 0 -2 0 0 0 0 -11 0 0 0 0 0 0 0 0 0 -3 -10 0 0 0 0 0 0 0 0 0 0 0
0 -4 0 0 0 0 0 0 0 0 -2 0 -4 -1 0 0 0 0 0 0 0 0 0 0 0 0 0 0 0 0 0 0 0 0 -13 -13 0 0 0 0 0 0 0 0 0
0 -1 0 0 0 0 0 0 0 0 -1 0 0 0 0 -1 0 0 0 0 0 0 0 0 0 0 0 0 0 0 0 0 0 0 0 0 0 0 0 0 0 0 0 0 0
-1 0 0 0 0 0 0 0 0 0 0 -1 0 -1 0 0 -1 0 -3 -1 -2 0 0 -1 0 -3 0 0 0 0 0 0 0 0 0 0 0 0 0 0 0 0 0 0 0
Wind_Speed
22 22 23 23 23 23 23 23 23 23 23 23 24 24 24 25 25 10 14 12 11 13 3 0 2 3 2 3 5 4 3 8 10 10 11 3 3 3 2 4 2 1 7 4 16
22 23 23 23 23 23 23 23 23 24 24 24 23 24 26 26 20 18 18 16 19 18 10 7 7 6 3 5 5 6 7 13 8 10 7 5 5 4 2 4 2 1 2 5 20
21 22 23 23 23 23 24 25 25 26 25 25 25 25 24 22 15 8 4 14 15 16 11 7 4 6 7 5 7 8 16 18 6 7 6 3 4 6 3 4 8 10 7 12 13
21 21 23 23 24 25 25 26 26 27 27 26 25 24 23 11 10 3 9 4 2 5 9 4 5 5 7 12 7 7 13 18 9 8 3 5 3 3 7 9 6 10 17 15 18
20 21 23 25 25 26 27 27 28 29 29 28 25 23 18 7 17 16 23 14 2 4 8 9 9 7 12 7 11 14 2 8 17 10 6 4 7 8 7 11 8 5 9 18 18
21 22 23 23 24 26 28 29 30 31 33 32 26 22 7 22 7 13 15 13 11 7 10 9 8 11 6 14 15 4 17 18 10 11 7 9 14 8 8 13 6 10 14 15 17
22 23 22 23 24 26 27 28 30 31 30 30 25 11 16 33 7 17 18 8 9 10 12 9 13 4 1 6 9 8 14 16 18 9 8 7 16 20 13 11 9 11 11 14 18
24 23 24 25 26 27 29 30 31 30 29 30 27 10 15 4 6 12 14 15 13 9 8 5 6 6 5 5 5 4 4 18 13 7 7 11 22 10 15 12 16 12 11 13 18
23 23 24 25 26 28 30 31 31 28 27 20 6 7 13 6 5 9 7 10 13 13 5 5 4 6 3 8 5 8 11 9 10 7 8 16 16 16 12 10 14 14 14 13 13
23 24 24 25 26 29 30 32 23 21 8 8 2 2 6 6 4 7 7 12 12 15 15 13 7 9 8 12 22 18 4 6 7 10 16 18 22 7 8 16 19 13 10 10 13
23 25 25 26 27 30 25 6 8 7 8 11 18 22 33 29 19 21 14 24 11 13 23 23 19 21 28 27 24 21 13 19 13 13 5 17 23 17 14 9 8 9 12 11 13
23 25 25 26 28 30 6 4 6 11 19 12 24 28 30 22 28 33 16 15 13 17 18 22 27 28 28 22 21 19 22 22 7 8 14 18 23 7 11 16 17 14 12 11 8
24 25 26 26 29 9 2 13 9 7 10 14 17 11 7 5 12 15 3 11 22 25 25 24 28 26 23 21 21 23 22 22 15 3 13 3 18 13 6 7 8 12 17 10 11
25 26 27 29 11 3 12 7 8 2 7 11 4 6 4 8 6 6 8 2 7 24 22 19 21 18 24 28 23 24 21 23 14 8 16 8 18 15 14 16 17 18 10 10 11
26 25 27 24 12 2 10 9 4 2 7 8 6 2 5 1 18 13 8 4 14 21 10 8 5 28 20 26 27 21 20 18 14 17 15 10 10 11 8 16 21 18 15 17 18
25 26 28 11 3 10 8 4 3 3 10 7 7 10 12 17 16 12 8 6 5 13 18 25 17 4 9 13 18 19 6 16 16 12 18 23 17 19 13 19 12 19 18 20 21
26 28 23 7 5 4 4 3 3 4 8 8 14 21 17 23 21 6 5 4 2 6 10 17 23 21 12 9 10 14 14 10 13 15 14 13 14 22 10 18 20 20 21 18 19
27 28 11 5 6 0 1 5 1 7 8 18 16 22 15 21 6 6 6 4 3 6 5 7 10 16 16 23 14 12 16 10 13 4 6 5 10 14 15 22 17 13 13 7 9
23 5 5 4 2 3 4 2 7 5 9 11 22 12 5 2 4 6 3 4 4 1 4 5 8 1 8 10 14 7 14 10 3 3 3 5 6 9 6 11 13 15 8 18 17
5 4 5 3 3 4 2 6 5 8 18 15 20 8 5 4 3 3 3 3 3 4 4 2 11 3 1 7 5 8 5 2 4 12 14 5 3 7 9 11 13 12 10 9 6
3 5 4 3 4 2 3 8 8 16 17 7 15 16 10 7 5 4 6 8 1 4 3 4 7 4 8 8 14 7 7 3 3 6 4 3 8 11 16 5 7 10 8 7 4
1 4 3 2 3 2 2 6 18 17 18 14 10 14 10 5 3 3 4 4 9 5 3 7 6 4 3 4 1 5 8 11 6 5 3 5 8 1 0 4 3 11 8 2 4
3 4 3 3 3 4 6 8 7 7 12 7 7 4 3 4 3 4 5 5 6 9 4 5 3 4 4 2 4 2 4 5 3 3 8 5 8 5 4 5 5 5 3 3 4
3 4 4 1 3 3 3 9 11 6 12 9 15 8 3 4 3 5 5 5 9 11 14 7 4 2 3 4 2 3 2 2 10 5 5 8 12 6 6 4 7 4 3 5 5
3 4 4 3 4 4 6 4 15 9 4 8 5 9 21 4 5 5 4 9 5 4 5 4 5 2 5 6 3 3 3 3 8 9 6 5 5 5 4 4 6 5 2 5 6
3 3 1 3 3 3 6 4 12 14 5 11 9 20 10 6 8 17 6 7 6 5 8 5 5 3 5 2 1 1 5 6 4 4 6 6 10 8 3 1 4 7 6 8 8
1 2 4 3 1 2 4 7 12 16 11 12 18 16 11 8 6 9 14 14 14 9 5 4 2 4 5 4 3 5 5 5 3 7 5 6 6 12 8 5 2 4 4 6 8
Wind_Direction
13 9 6 4 0 357 353 349 345 342 340 338 337 336 333 327 324 300 256 231 210 250 256 277 176 212 160 238 206 147 138 215 227 193 227 226 348 299 283 144 34 32 152 203 154
10 5 360 356 353 349 346 344 340 337 335 334 333 331 331 330 313 276 246 238 255 250 244 217 206 181 217 210 207 175 185 216 210 216 236 169 198 273 241 189 188 15 2 126 152
6 360 356 353 348 345 343 340 336 333 332 330 329 330 329 336 307 248 117 205 246 241 212 197 229 181 205 195 205 203 226 224 234 205 211 220 305 180 193 251 214 197 164 148 158
0 357 354 350 346 344 341 337 333 329 326 324 323 324 325 325 273 263 140 81 25 93 161 197 186 201 206 218 213 247 223 230 240 235 219 241 211 231 187 230 266 195 165 159 172
355 354 352 345 343 341 338 335 331 327 323 318 317 320 328 274 247 277 287 282 112 145 190 200 207 190 224 209 220 248 271 240 242 240 221 242 227 224 226 253 242 115 163 177 182
349 352 345 341 340 339 335 332 328 325 319 311 311 311 307 264 260 256 268 267 243 216 215 195 214 221 276 225 239 239 223 249 267 254 237 243 262 170 234 241 217 162 190 191 192
350 346 339 337 338 335 331 327 322 320 312 304 304 297 266 247 292 306 308 306 264 218 222 209 217 227 211 260 269 235 261 263 242 245 233 203 251 237 229 230 209 198 203 204 207
344 341 339 338 337 333 328 324 324 316 304 301 296 267 257 264 274 276 272 274 266 254 225 220 194 214 181 279 312 260 231 239 242 189 223 177 246 229 223 225 235 219 222 208 212
341 337 336 333 333 330 326 323 320 313 312 312 291 166 263 302 247 247 258 259 271 258 247 236 180 196 173 209 290 217 249 229 251 208 203 200 255 230 237 228 237 236 233 221 221
338 335 332 330 327 327 323 323 308 312 334 351 253 245 260 256 283 309 290 300 289 250 252 230 225 219 201 197 222 224 211 239 191 200 200 228 243 244 233 230 234 229 231 222 211
335 334 330 327 332 325 325 341 348 329 13 275 257 264 273 277 284 276 278 279 261 258 226 221 223 221 219 212 223 229 228 241 241 239 230 231 250 235 235 248 233 240 233 226 222
335 331 329 328 327 322 351 353 278 285 301 250 254 251 255 278 290 283 281 278 262 253 252 214 219 221 225 220 224 222 231 246 270 226 228 249 256 210 216 235 228 227 235 231 225
331 329 326 326 323 330 325 297 315 341 281 287 255 247 234 194 236 286 244 269 243 250 247 251 225 220 211 213 214 222 221 231 222 190 248 286 271 238 229 249 255 240 242 233 215
331 329 327 327 324 304 297 284 332 30 274 280 256 252 177 225 255 215 166 124 243 232 246 242 249 227 216 216 209 224 215 229 226 218 242 159 263 247 238 237 242 236 221 223 210
331 328 325 325 298 266 290 309 330 354 297 269 278 182 331 33 313 304 203 196 272 238 211 237 212 198 207 213 204 226 219 225 224 230 242 221 250 247 205 234 237 238 222 220 222
330 326 322 318 263 259 295 292 67 49 254 281 309 310 323 316 311 304 289 184 235 236 234 253 252 282 238 247 205 221 152 218 225 224 228 224 215 254 221 227 239 249 241 227 227
332 324 318 304 256 321 335 6 343 178 324 281 317 315 319 300 311 274 298 281 246 306 221 251 248 243 220 255 243 211 180 212 215 218 238 211 202 238 203 230 230 236 245 237 233
331 320 296 269 274 164 63 43 207 248 248 293 301 297 283 295 240 277 284 279 306 264 275 209 302 167 191 209 207 210 197 194 217 204 229 149 218 242 222 245 250 244 248 258 247
332 295 294 266 3 93 68 46 224 275 311 297 308 289 302 214 294 325 256 245 176 211 274 295 253 210 174 172 174 183 207 220 83 347 114 184 276 305 213 235 253 246 249 248 239
321 327 279 283 131 69 216 252 229 264 295 294 292 244 272 247 337 320 288 234 229 134 269 323 299 229 176 105 262 217 158 225 243 221 232 235 245 227 269 225 251 278 251 258 252
44 333 265 4 69 54 220 230 268 289 300 280 279 278 261 300 224 240 257 285 239 304 329 336 245 312 159 185 175 175 204 198 162 157 175 199 246 205 235 230 257 272 292 256 160
250 291 274 57 31 304 226 214 300 293 301 285 266 266 259 264 263 270 271 252 337 325 314 210 271 297 288 288 30 199 199 181 181 221 214 169 266 297 325 228 249 281 283 175 115
245 248 299 94 258 280 292 280 270 296 310 299 280 289 255 290 298 243 274 290 333 343 302 333 325 301 308 324 31 231 207 200 86 81 202 151 265 344 341 312 264 277 10 76 111
289 296 305 285 166 226 291 297 310 280 286 288 293 281 298 307 291 282 280 297 332 299 317 276 233 306 309 295 192 303 305 242 215 232 208 220 269 279 308 307 313 310 156 136 108
204 238 209 278 285 233 297 264 298 315 255 292 306 334 322 295 301 289 290 313 298 308 356 46 316 247 281 256 243 229 249 268 246 257 248 250 221 276 289 309 286 271 138 117 146
260 264 250 281 261 252 282 274 294 318 284 308 314 313 305 289 254 295 296 300 267 334 6 338 289 341 287 42 157 248 347 313 300 318 269 242 276 337 353 281 192 225 174 173 171
242 265 240 242 262 72 243 284 298 307 293 288 303 309 304 258 243 252 267 262 259 288 288 259 254 342 279 332 351 39 328 340 21 30 322 15 347 328 332 290 271 247 226 224 200